Location: Newark
(0.5300°S, 127.4800°E)
Time: 07:11:21
(UTC+00:00)

Vanguard 3 - Pass Details

Date: 20 September 2019
Orbit: 508 x 3262 km, 33.3° (Epoch: 18 October)

Event Time Altitude Azimuth Distance (km) Brightness Sun altitude
Rises 09:50:52 0° 284° (WNW) 5,434 13.4 -6.8°
Reaches altitude 10° 09:55:57 10° 272° (W) 3,883 12.4 -8.1°
Maximum altitude 10:03:00 23° 223° (SW) 2,228 9.9 -9.8°
Drops below altitude 10° 10:07:48 10° 171° (S) 2,522 9.6 -11.0°
Sets 10:10:21 0° 155° (SSE) 3,187 9.9 -11.7°
